Regional Weather Roundup
Issued by NWS Huntsville, AL

Home | Current Version | Previous Version | Text Only | Print | Product List | Glossary On
Versions: 1 2 3 4 5 6 7 8 9 10 11 12 13 14 15 16 17 18 19 20 21 22 23 24 25 26 27 28 29 30
000
ASUS44 KHUN 301210
RWRHUN

WEATHER ROUNDUP FOR THE TENNESSEE VALLEY
NATIONAL WEATHER SERVICE HUNTSVILLE AL
700 AM CDT THU OCT 30 2014

ALZ001>004-301300-
NORTHWEST ALABAMA

CITY           SKY/WX    TMP DP  RH WIND       PRES   REMARKS
COURTLAND HCN    N/A     37 N/A N/A CALM        N/A
RUSSELLVILLE     N/A     36 N/A N/A MISG        N/A
SHOALS AIRPORT CLEAR     39  36  87 CALM      30.16R FOG
6HR MIN TEMP:  38; 6HR MAX TEMP:  47;

SHOALS TVA RES   N/A     39 N/A N/A MISG        N/A
$$

ALZ005>007-016-301300-
NORTH CENTRAL ALABAMA

CITY           SKY/WX    TMP DP  RH WIND       PRES   REMARKS
CULLMAN AG STN   N/A     37 N/A N/A CALM        N/A
DECATUR AP     CLEAR     42  37  82 CALM      30.14R
6HR MIN TEMP:  41; 6HR MAX TEMP:  48;

HUNTSVILLE AP  CLEAR     43  38  82 CALM      30.13R
6HR MIN TEMP:  42; 6HR MAX TEMP:  48;

HUN NWS/UAH      N/A     45  38  76 NW1         N/A
MERIDIANVILLE  CLEAR     37  34  87 CALM      30.14R
VINEMONT AP    FAIR      37  36  99 CALM      30.14R
$$

ALZ008>010-301300-
NORTHEAST ALABAMA

CITY           SKY/WX    TMP DP  RH WIND       PRES   REMARKS
ALBERTVILLE    CLEAR     43  43 100 N7        30.10S
FORT PAYNE     FOG       34  32  93 CALM      30.12R VSB 1/4
SCOTTSBORO AP  CLEAR     37  37 100 CALM      30.14R
SCOTTSBORO HCN   N/A     37 N/A N/A MISG        N/A
VALLEY HEAD      N/A     34 N/A N/A MISG        N/A
$$

TNZ076-096-097-301300-
SOUTHEASTERN MIDDLE TENNESSEE

CITY           SKY/WX    TMP DP  RH WIND       PRES   REMARKS
TULLAHOMA      CLEAR     34  30  86 CALM      30.13S
WINCHESTER     CLEAR     36  34  93 CALM      30.14R
$$

...SURROUNDING SITES...

CITY           SKY/WX    TMP DP  RH WIND       PRES   REMARKS
ATLANTA        CLEAR     45  42  89 NW7       30.07R
ANNISTON       FOG       40  39  97 CALM      30.12R VSB 1/4
BIRMINGHAM     CLEAR     42  40  92 CALM      30.14R
CHATTANOOGA    CLEAR     41  38  89 CALM      30.12S
CORINTH        FOG       37  36  93 CALM      30.16R VSB 3/4
DALTON         CLEAR     41  41 100 CALM      30.10R
GADSDEN        CLEAR     36  34  93 CALM      30.12R
GOLDEN TRNGL   CLEAR     45  43  93 NW6       30.13R
HALEYVILLE     FAIR      37  37 100 CALM      30.16R
JACKSON TN     CLEAR     37  35  92 CALM      30.17R
MEMPHIS        CLEAR     46  40  79 CALM      30.16R
MURFREESBORO   FAIR      38  37  96 CALM      30.15R
NASHVILLE      CLEAR     40  38  93 CALM      30.17R
OXFORD MS      FAIR      37  37 100 CALM      30.17R
ROME           CLEAR     37  36  96 CALM      30.10R
SAVANNAH       CLEAR     34  34 100 CALM      30.16R
TUPELO         CLEAR     43  40  89 CALM      30.14S
TUSCALOOSA     CLEAR     42  40  92 CALM      30.14R
$$

...GULF COAST WEATHER...

CITY           SKY/WX    TMP DP  RH WIND       PRES   REMARKS
GULFPORT       CLEAR     55  44  66 N8        30.08R
PASCAGOULA     CLEAR     54  50  86 N8        30.07R
MOBILE         PTCLDY    53  51  93 N8        30.08R
GULF SHORES    CLOUDY    62  51  69 NE6       30.05R
PENSACOLA      MOCLDY    61  52  72 N9        30.04R
DESTIN         CLOUDY    63  53  70 NE9       30.03S
PANAMA CITY    MOCLDY    64  55  72 NE12G18   30.02R
APPALACHICOLA  CLOUDY    68  64  87 N10       29.99R
$$




USA.gov is the U.S. government's official web portal to all federal, state and local government web resources and services.